Regional Weather Roundup
Issued by NWS Wakefield, VA

Home | Current Version | Previous Version | Graphics & Text | Print | Product List | Glossary On
Versions: 1 2 3 4 5 6 7 8 9 10 11 12 13 14 15 16 17 18 19 20 21 22 23 24 25 26 27 28 29 30 31 32 33 34 35 36 37 38 39 40 41 42 43 44 45 46 47 48 49 50
000
ASUS41 KAKQ 260910
RWRAKQ

REGIONAL WEATHER ROUNDUP
NATIONAL WEATHER SERVICE WAKEFIELD VA
400 AM EST WED NOV 26 2014

Note: "fair" indicates few or no clouds below 12,000 feet with no
significant weather and/or obstructions to visibility. * = Denotes
station may not report precipitation (e.g., rain,snow,etc.),
thunder or fog.

VAZ042-051-052>054-056-261000-
NORTHERN VIRGINIA

CITY           SKY/WX    TMP DP  RH WIND       PRES   REMARKS
WASH NATIONAL  LGT RAIN  50  37  61 NE3       30.07F
DULLES         LGT RAIN  45  39  79 N8        30.07F
FORT BELVOIR   LGT RAIN  46  41  84 CALM      30.07F
QUANTICO       LGT RAIN  47  40  76 CALM      30.08F
FREDERICKSBRG* LGT RAIN  46  45  97 NW5       30.05F
STAFFORD*      RAIN      44  44 100 CALM      30.10F
WARRENTON      LGT RAIN  46  45  96 N3        30.05F
CULPEPER*      RAIN      45  43  93 N3        30.05F
MANASSAS*      CLOUDY    45  43  93 N7        30.06F
LEESBURG*      RAIN      43  37  81 N9G21     30.10F
WINCHESTER     LGT RAIN  43  30  61 N3        30.10F
FRONT ROYAL*   CLOUDY    39  34  81 NE3       30.08F
LURAY*         LGT RAIN  43  36  75 N9G17     30.06F
$$

VAZ048-049-060>072-079>083-261000-
CENTRAL AND SOUTH CENTRAL VIRGINIA

CITY           SKY/WX    TMP DP  RH WIND       PRES   REMARKS
RICHMOND       RAIN      46  43  87 NE9       30.04S FOG
CHESTERFIELD*  CLOUDY    45  34  65 NE8       30.04F
PETERSBURG*    LGT RAIN  47  46  95 NE14      30.03S
HANOVER        RAIN      45  43  93 VRB3      30.05F FOG
TAPPAHANNOCK*  RAIN      46  41  84 NE7       30.06S
QUINTON*       CLOUDY    45  43  93 NE8       30.04S
CHARLOTTSVILLE LGT RAIN  44  41  89 N5        30.03F
GORDONSVILLE*  CLOUDY    44  41  91 NE3       30.04F
ORANGE*        RAIN      45  41  87 N3        30.06F
LOUISA*        LGT RAIN  45  41  87 N6        30.03F
BUMPASS*       CLOUDY    44  42  93 N3        30.04F
FARMVILLE*     RAIN      47  47 100 NE10      29.99F
CREWE*         CLOUDY    46  45  95 NE7       30.00F
FORT PICKETT*  CLOUDY    45  44  97 NE12G21   29.99F
CHASE CITY*    CLOUDY    48  48 100 NE8       29.97F
CLARKSVILLE*   CLOUDY    45  45 100 N8        29.96F
SOUTH HILL*    CLOUDY    46  45  97 N9G16     30.02F
LAWRENCEVILLE* CLOUDY    47  46  99 NE7       29.97F
$$

VAZ088>098-261000-
SOUTHEAST VIRGINIA

CITY           SKY/WX    TMP DP  RH WIND       PRES   REMARKS
NORFOLK        RAIN      49  46  90 NE24G32   30.00R FOG
VIRGINIA BEACH LGT RAIN  51  48  89 NE23G31   29.98S FOG
NORFOLK NAVAL  LGT RAIN  49  45  86 NE25      30.02S FOG
WEST POINT*    CLOUDY    48  45  87 NE9       30.07R
SALUDA*        CLOUDY    46  42  86 NE10      30.05R
NEWPORT NEWS   LGT RAIN  48  43  82 NE15G28   30.02S
LANGLEY AFB    MIX PCPN  46 N/A N/A NE29G35   30.03F
FORT EUSTIS    LGT RAIN  46  46 100 NE12G22   30.01R FOG
WILLIAMSBURG*  CLOUDY    48  46  93 NE6       30.04R
HR EXEC AP*    CLOUDY    48  45  87 NE14      30.02R
FRANKLIN*      CLOUDY    48  48 100 NE14G21   29.98S
WAKEFIELD      RAIN      47  44  90 NE8G21    30.02R FOG
$$

VAZ020-022-025-037-045-261000-
WEST CENTRAL AND SOUTHWEST VIRGINIA

CITY           SKY/WX    TMP DP  RH WIND       PRES   REMARKS
STAUNTON*      LGT RAIN  40  35  80 N5        30.05F
WAYNESBORO*    CLOUDY    38  37  97 NW6       30.01F
HOT SPRINGS VA LGT SNOW  35  31  85 NW6       29.96F
LYNCHBURG      LGT RAIN  41  40  96 N8        29.99F
DANVILLE       LGT RAIN  46  42  86 N9        30.00F
SOUTH BOSTON*  CLOUDY    46  45  95 N6        29.96F
MARTINSVILLE   RAIN      43  43 100 N6        30.01R
ROANOKE        RAIN      42  39  89 W5        30.05R
BLACKSBURG     RAIN      39  39 100 CALM      30.01F
DUBLIN*        LGT SNOW  40  39  95 CALM      30.01F
MARION*        RAIN      38  36  91 CALM      30.01F
HILLSVILLE*    MIX PCPN  37  36  97 N8        29.99F
RICHLANDS*     CLOUDY    42  31  65 S7        29.95F
WISE*          CLOUDY    37  28  70 N6        29.96F
ABINGDON*      LGT RAIN  45  32  60 SE3       29.95F
$$

MDZ021>025-VAZ099-100-261000-
SOUTHERN MARYLAND AND THE DELMARVA PENINSULA

CITY           SKY/WX    TMP DP  RH WIND       PRES   REMARKS
PATUXENT RIVER LGT RAIN  46  40  79 E10       30.06F
BAY BRIDGE APT LGT RAIN  46  37  71 NE6       30.07F
LEONARDTOWN    CLOUDY    45  41  87 CALM      30.07S
DOVER          LGT RAIN  45  42  91 NE7       30.06F
GEORGETOWN     LGT RAIN  46  42  86 NE10      30.08F
EASTON         LGT RAIN  47  43  87 E5        30.10F
CAMBRIDGE      CLOUDY    46  41  81 E5        30.05F
SALISBURY      LGT RAIN  48  41  76 NE8       30.07F
OCEAN CITY     LGT RAIN  48  41  76 NE14      30.06F
WALLOPS ISLAND LGT RAIN  46  42  86 NE16G26   30.07S FOG
ACCOMACK*      LGT RAIN  45  39  81 NE12G22   30.04S
$$

NCZ012>017-030>032-261000-
NORTH CENTRAL AND EASTERN NORTH CAROLINA

CITY           SKY/WX    TMP DP  RH WIND       PRES   REMARKS
ROANOKE RAPIDS RAIN      48  46  93 N10G18    29.93F
RALEIGH        RAIN      50  47  89 NE9       29.91F VSB 1
ELIZABETH CITY CLOUDY    59  55  87 NE15G23   29.93F
AHOSKIE*       HVY RAIN  50  49  96 N10G18    29.94F
EDENTON*       CLOUDY    55  55  99 NE13G20   29.91F
CURRITUCK*     CLOUDY    56  54  94 NE12G18   29.95F
KILL DEVIL HLS DRIZZLE   61  60  99 E5        29.90F
MANTEO         CLOUDY    61  60  97 NE12      29.91F
CAPE HATTERAS  LGT RAIN  65  65 100 E16       29.84F
TARBORO*       RAIN      52  51  96 N8        29.90F
GOLDSBORO      LGT RAIN  54  53  99 N6        29.82F
WASHINGTON     CLOUDY    56  55  98 NE8       29.87F
GREENVILLE     CLOUDY    54  54 100 N8        29.89F
NEW BERN       CLOUDY    61  58  90 E8        29.84F
WILMINGTON     CLOUDY    64  64 100 E7        29.78F
$$

VAZ048-261000-
ELSEWHERE

CITY           SKY/WX    TMP DP  RH WIND       PRES   REMARKS
HARRISBURG PA  CLOUDY    41  31  67 NW3       30.15S
BALTIMORE      LGT RAIN  48  34  58 N5        30.07F
ANNAPOLIS      LGT RAIN  46  39  76 N8        30.06F
ANDREWS AFB    LGT RAIN  44  40  86 N6        30.06F
PHILADELPHIA   CLOUDY    50  31  48 N16       30.09F
WILDWOOD NJ*   CLOUDY    45  37  76 N8        30.07S
HENDERSON NC   RAIN      47  45  93 N13G20    29.94F
GREENSBORO     LGT RAIN  43  41  93 N8G17     29.97R FOG
ROCKY MOUNT    RAIN      52  50  93 NE15      29.88F FOG
$$

VAZ100-261000-
MARINE

STATION/POSITION TIME  TEMP    WIND        PRES    WAVE   SWELL
                       AIR SEA DIR/SP/G            HT/PER HT/PER
                 (UTC) (F)     (DEG/KT/KT) (MB)    (FT/S) (FT/S)
CAPE MAY NJ      0900   45 51   30/  5/ 10 1018.4F
LEWES DE         0900   48 50   40/ 14/ 16 1018.6F
15NM E FENWICK I 0900   52 54              1017.7F   4/ 8
OCEAN-CITY-INLET 0900   50 50   70/ 11/ 16 1017.8S
WACHAPREAGUE VA  0900   46 53   30/ 17/ 21 1016.9F
THOMAS POINT MD  0900   47 48   10/ 13/ 15 1018.7F
GOOSES REEF MD   0900   48      30/  6/ 10 1018.3R
COVE POINT MD    0900   46      90/  8/ 12 1017.6R
SOLOMONS ISLAND  0900      50                N/A
BISHOPS HEAD MD  0900   46 49   40/  9/ 12 1017.6R
PINEY POINT MD   0900           90/  8/ 10   N/A
POTOMAC MD       0900   48      60/ 14/ 19 1016.8F
CAMBRIDGE MD     0900   46 46   70/  7/ 10 1017.6F
LEWISETTA VA     0900   47 50   60/ 15/ 20 1017.5R
RAPPAHANNOCK LGT 0900           30/ 28/ 30 1017.2F
STINGRAY PT      0900   49      60/ 19/ 25 1017.5R
YORK RVR RNG VA  0900   47      60/ 28/ 31 1015.9F
YORKTOWN VA      0900   47 51   50/ 18/ 22 1016.2F
JAMESTOWN VA     0900   45      70/  8/ 12   N/A
DOMINION TERM VA 0900   46      40/ 10/ 18 1016.2F
KIPTOPEKE VA     0900      57   60/ 16/ 27   N/A
CHES BAY BRIDGE  0900   48 52   20/ 25/ 29 1015.1R
CAPE HENRY VA    0900   50      30/ 27/ 31 1014.5F
CHESAPEAKE LGHT  0800   53      50/ 30/ 33 1015.3F
WILLOUBY STN VA  0900   46      40/ 25/ 30 1014.9R
S CRANEY ISL VA  0900          360/ 24/ 30 1015.5R
CAPE HENRY BUOY  0900      56                N/A     6/ 5
1ST LANDING BUOY 0900   50      40/ 23/ 29 1015.4R
CAPE CHARLES BUO 0900      55                N/A     5/ 5   2/ 8
64NM E OF VA BCH 0900   60 64   60/ 27/ 33 1012.4F   6/ 9   3/ 9
DUCK PIER NC     0900   59 58   40/ 21/ 24 1012.1F
44100 DUCK FRF   0900      59                N/A     5/ 9   2/11
44056 DUCK FRF   0900      58                N/A     4/ 5
OREGON INLET NC  0900   62 57   60/ 10/ 12 1011.5F
HATTERAS NC      0900   67 62  120/ 14/ 17 1010.5F
DIAMOND SHLS NC  0900   69     110/ 10/ 12 1011.8F   5/ 7   5/ 7
CAPE LOOKOUT NC  0800   67     120/ 23/ 26 1009.2F
$$



USA.gov is the U.S. government's official web portal to all federal, state and local government web resources and services.